This is the latest recevied weather packets stored in our database for station/object KP4FJC. If no packets are shown the sender has not sent any weather packets the latest 10 day(s).
| Time | Temp. | Humidity | Pressure | Rain* | Wind** | Luminosity | Snow |
|---|---|---|---|---|---|---|---|
| 1777576218 | 29.44° C | 77% | 1012.4 hPa | 0 mm | - | 334 W/m² | - |
| 1777575914 | 28.89° C | 78% | 1012.4 hPa | 0 mm | - | 275 W/m² | - |
| 1777575610 | 28.89° C | 77% | 1012.5 hPa | 0 mm | - | 252 W/m² | - |
| 1777575306 | 29.44° C | 77% | 1012.3 hPa | 0 mm | - | 220 W/m² | - |
| 1777575002 | 29.44° C | 77% | 1012.7 hPa | 0 mm | - | 287 W/m² | - |
| 1777574698 | 30° C | 76% | 1012.8 hPa | 0 mm | - | 405 W/m² | - |
| 1777574395 | 29.44° C | 77% | 1012.5 hPa | 0 mm | - | 371 W/m² | - |
| 1777574091 | 29.44° C | 77% | 1012.8 hPa | 0 mm | - | 354 W/m² | - |
| 1777573786 | 29.44° C | 77% | 1012.8 hPa | 0 mm | - | 304 W/m² | - |
| 1777573482 | 29.44° C | 77% | 1012.9 hPa | 0 mm | - | 247 W/m² | - |
| 1777573178 | 29.44° C | 77% | 1013 hPa | 0 mm | - | 335 W/m² | - |
| 1777572875 | 29.44° C | 76% | 1013 hPa | 0 mm | - | 364 W/m² | - |
| 1777572571 | 30° C | 76% | 1012.8 hPa | 0 mm | - | 412 W/m² | - |
| 1777572267 | 30° C | 74% | 1013.2 hPa | 0 mm | - | 411 W/m² | - |
| 1777571962 | 30° C | 74% | 1013.1 hPa | 0 mm | - | 496 W/m² | - |
| 1777571657 | 30.56° C | 74% | 1012.9 hPa | 0 mm | - | 450 W/m² | - |
| 1777571355 | 30.56° C | 74% | 1013 hPa | 0 mm | - | 500 W/m² | - |
| 1777571051 | 30.56° C | 73% | 1013 hPa | 0 mm | - | 495 W/m² | - |
| 1777570747 | 31.11° C | 61% | 1013.2 hPa | 0 mm | - | 487 W/m² | - |
| 1777570444 | 31.11° C | 62% | 1013.1 hPa | 0 mm | - | 465 W/m² | - |
| 1777570139 | 31.11° C | 64% | 1013.2 hPa | 0 mm | - | 542 W/m² | - |
| 1777569835 | 31.11° C | 64% | 1013.5 hPa | 0 mm | - | 524 W/m² | - |
| 1777569531 | 31.11° C | 63% | 1013.4 hPa | 0 mm | - | 503 W/m² | - |
| 1777569228 | 31.11° C | 62% | 1013.5 hPa | 0 mm | - | 482 W/m² | - |
| 1777568925 | 31.11° C | 64% | 1013.4 hPa | 0 mm | - | 462 W/m² | - |
* Rain latest hour (hover to see other rain measurements)
** Current wind speed in m/s (hover to see current wind gust speed)